GW5520 Weather Reports


time (UTC)temp
C
wind
direction
speed
KPH
gust
KPH
rain 1hr
cm
rain 24hr
cm
rain mn
cm
humidity
%
barometer
mb
20260510203339 21 122 3.2 9.7 0.00 0.00 0.00 35
20260510202834 22 242 4.8 6.4 0.00 0.00 0.00 35
20260510202329 22 91 6.4 9.7 0.00 0.00 0.00 37
20260510201827 22 323 0.0 4.8 0.00 0.00 0.00 38
20260510201324 22 120 0.0 9.7 0.00 0.00 0.00 36
20260510200821 21 8 4.8 8.0 0.00 0.00 0.00 36
20260510200318 22 346 4.8 11.3 0.00 0.00 0.00 34
20260510195814 22 120 4.8 12.9 0.00 0.00 0.00 35
20260510195311 22 296 6.4 9.7 0.00 0.00 0.00 35
20260510194810 22 188 1.6 6.4 0.00 0.00 0.00 34
20260510194307 22 109 3.2 8.0 0.00 0.00 0.00 34
20260510193803 21 210 4.8 14.5 0.00 0.00 0.00 32
20260510193258 22 279 3.2 11.3 0.00 0.00 0.00 34
20260510192754 21 275 3.2 8.0 0.00 0.00 0.00 35
20260510192249 21 38 4.8 12.9 0.00 0.00 0.00 36
20260510191746 22 265 3.2 4.8 0.00 0.00 0.00 37
20260510191241 22 309 6.4 16.1 0.00 0.00 0.00 35
20260510190740 22 246 3.2 6.4 0.00 0.00 0.00 37
20260510190236 21 18 3.2 8.0 0.00 0.00 0.00 35
20260510185733 21 70 9.7 9.7 0.00 0.00 0.00 33
20260510185231 22 17 6.4 9.7 0.00 0.00 0.00 31
20260510184727 22 156 4.8 6.4 0.00 0.00 0.00 38
20260510184224 21 84 3.2 9.7 0.00 0.00 0.00 37
20260510183719 21 160 0.0 8.0 0.00 0.00 0.00 36
20260510183214 21 251 3.2 9.7 0.00 0.00 0.00 36
20260510182711 21 117 0.0 12.9 0.00 0.00 0.00 39
20260510182207 21 87 4.8 11.3 0.00 0.00 0.00 37
20260510181704 21 145 4.8 8.0 0.00 0.00 0.00 39
20260510181200 21 84 4.8 6.4 0.00 0.00 0.00 40
20260510180657 21 287 0.0 6.4 0.00 0.00 0.00 40
20260510180155 21 0 0.0 9.7 0.00 0.00 0.00 39
20260510175650 21 31 4.8 11.3 0.00 0.00 0.00 41
20260510175146 21 112 3.2 9.7 0.00 0.00 0.00 39
20260510174644 21 87 3.2 9.7 0.00 0.00 0.00 39
20260510174141 21 8 6.4 9.7 0.00 0.00 0.00 42
20260510173637 20 129 3.2 8.0 0.00 0.00 0.00 45
20260510173133 21 12 0.0 8.0 0.00 0.00 0.00 48
20260510172629 20 108 0.0 12.9 0.00 0.00 0.00 40
20260510172125 20 328 1.6 9.7 0.00 0.00 0.00 44
20260510171622 20 78 8.0 9.7 0.00 0.00 0.00 38
20260510171120 20 91 4.8 9.7 0.00 0.00 0.00 40
20260510170615 20 197 3.2 11.3 0.00 0.00 0.00 42
20260510170112 20 72 6.4 16.1 0.00 0.00 0.00 42
20260510165608 20 138 3.2 9.7 0.00 0.00 0.00 43
20260510165104 20 77 6.4 9.7 0.00 0.00 0.00 42
20260510164601 20 93 6.4 12.9 0.00 0.00 0.00 41
20260510164058 20 311 3.2 8.0 0.00 0.00 0.00 42
20260510163553 20 79 3.2 9.7 0.00 0.00 0.00 42
20260510163050 20 354 3.2 6.4 0.00 0.00 0.00 44
20260510162545 20 115 4.8 6.4 0.00 0.00 0.00 42
20260510162042 19 276 4.8 17.7 0.00 0.00 0.00 47
20260510161537 19 37 4.8 6.4 0.00 0.00 0.00 51
20260510161034 18 20 0.0 12.9 0.00 0.00 0.00 46
20260510160532 18 0 3.2 9.7 0.00 0.00 0.00 48
20260510160031 18 229 3.2 6.4 0.00 0.00 0.00 45
20260510155528 18 71 9.7 9.7 0.00 0.00 0.00 47
20260510155024 18 77 3.2 8.0 0.00 0.00 0.00 48
20260510154520 18 91 4.8 6.4 0.00 0.00 0.00 51
20260510154020 18 40 6.4 12.9 0.00 0.00 0.00 47
20260510153515 18 39 1.6 8.0 0.00 0.00 0.00 51
20260510153013 18 58 8.0 14.5 0.00 0.00 0.00 49
20260510152511 18 16 6.4 11.3 0.00 0.00 0.00 51
20260510152007 18 88 0.0 8.0 0.00 0.00 0.00 51
20260510151503 18 83 1.6 9.7 0.00 0.00 0.00 50
20260510151000 18 37 1.6 6.4 0.00 0.00 0.00 53
20260510150455 18 346 3.2 6.4 0.00 0.00 0.00 52
20260510145951 18 145 6.4 16.1 0.00 0.00 0.00 53
20260510145448 18 48 0.0 8.0 0.00 0.00 0.00 52
20260510144944 17 56 6.4 8.0 0.00 0.00 0.00 54
20260510144441 17 104 6.4 9.7 0.00 0.00 0.00 53
20260510143937 17 190 6.4 11.3 0.00 0.00 0.00 53
20260510143432 17 123 3.2 11.3 0.00 0.00 0.00 56
20260510142930 17 56 3.2 8.0 0.00 0.00 0.00 58
20260510142427 17 64 4.8 9.7 0.00 0.00 0.00 57
20260510141923 17 134 6.4 11.3 0.00 0.00 0.00 58
20260510141420 17 149 3.2 4.8 0.00 0.00 0.00 63
20260510140917 17 30 4.8 8.0 0.00 0.00 0.00 62
20260510140414 16 91 3.2 9.7 0.00 0.00 0.00 61
20260510135913 16 121 4.8 6.4 0.00 0.00 0.00 64
20260510135409 16 68 3.2 9.7 0.00 0.00 0.00 66
20260510134907 16 64 6.4 12.9 0.00 0.00 0.00 67
20260510134403 16 104 3.2 8.0 0.00 0.00 0.00 71
20260510133859 15 82 4.8 11.3 0.00 0.00 0.00 70
20260510133355 16 96 6.4 16.1 0.00 0.00 0.00 69
20260510132851 16 95 3.2 8.0 0.00 0.00 0.00 71
20260510132349 15 18 4.8 6.4 0.00 0.00 0.00 73
20260510131846 15 50 12.9 16.1 0.00 0.00 0.00 72
20260510131343 15 70 3.2 9.7 0.00 0.00 0.00 73
20260510130839 15 124 4.8 14.5 0.00 0.00 0.00 74
20260510130337 15 74 3.2 8.0 0.00 0.00 0.00 75
20260510125833 15 25 0.0 11.3 0.00 0.00 0.00 76
20260510125329 15 0 3.2 6.4 0.00 0.00 0.00 80
20260510124826 15 43 3.2 8.0 0.00 0.00 0.00 80
20260510124323 15 88 1.6 4.8 0.00 0.00 0.00 80
20260510123819 15 102 0.0 9.7 0.00 0.00 0.00 80
20260510123315 15 96 3.2 8.0 0.00 0.00 0.00 80
20260510122811 15 113 1.6 4.8 0.00 0.00 0.00 82
20260510122307 15 69 0.0 12.9 0.00 0.00 0.00 83
20260510121804 15 98 3.2 6.4 0.00 0.00 0.00 84
20260510121302 14 82 6.4 9.7 0.00 0.00 0.00 85
20260510120758 14 83 1.6 3.2 0.00 0.00 0.00 86
20260510120255 14 29 0.0 3.2 0.00 0.00 0.00 86
20260510115751 14 23 3.2 3.2 0.00 0.00 0.00 86
20260510115249 14 135 3.2 3.2 0.00 0.00 0.00 86
20260510114744 13 116 4.8 6.4 0.00 0.00 0.00 87
20260510114242 13 142 1.6 3.2 0.00 0.00 0.00 88
20260510113737 13 134 0.0 6.4 0.00 0.00 0.00 88
20260510113234 13 160 1.6 3.2 0.00 0.00 0.00 89
20260510112730 13 135 3.2 4.8 0.00 0.00 0.00 90
20260510112227 13 74 3.2 6.4 0.00 0.00 0.00 90
20260510111723 13 4 3.2 4.8 0.00 0.00 0.00 90
20260510111220 13 103 1.6 3.2 0.00 0.00 0.00 90
20260510110720 13 150 3.2 3.2 0.00 0.00 0.00 90
20260510110218 13 38 0.0 1.6 0.00 0.00 0.00 89
20260510105717 13 38 1.6 3.2 0.00 0.00 0.00 89
20260510105212 14 51 0.0 1.6 0.00 0.00 0.00 89
20260510104709 14 140 0.0 3.2 0.00 0.00 0.00 89
20260510104206 14 134 3.2 3.2 0.00 0.00 0.00 89
20260510103703 13 249 1.6 3.2 0.00 0.00 0.00 89
20260510103200 13 226 3.2 3.2 0.00 0.00 0.00 88
20260510102700 14 126 0.0 3.2 0.00 0.00 0.00 88
20260510102156 14 245 1.6 1.6 0.00 0.00 0.00 88
20260510101653 14 311 0.0 3.2 0.00 0.00 0.00 87
20260510101152 14 141 0.0 1.6 0.00 0.00 0.00 86
20260510100647 14 124 0.0 1.6 0.00 0.00 0.00 86
20260510100145 14 118 0.0 3.2 0.00 0.00 0.00 85
20260510095640 15 142 0.0 0.0 0.00 0.00 0.00 83
20260510095136 15 218 0.0 1.6 0.00 0.00 0.00 82
20260510094634 15 98 1.6 3.2 0.00 0.00 0.00 82
20260510094131 15 152 1.6 3.2 0.00 0.00 0.00 81
20260510093621 15 181 0.0 3.2 0.00 0.00 0.00 81
20260510093118 15 144 0.0 3.2 0.00 0.00 0.00 82
20260510092615 15 86 0.0 3.2 0.00 0.00 0.00 81
20260510092115 15 197 3.2 4.8 0.00 0.00 0.00 81
20260510091611 15 254 1.6 3.2 0.00 0.00 0.00 81
20260510091108 15 230 1.6 3.2 0.00 0.00 0.00 80
20260510090605 15 295 0.0 3.2 0.00 0.00 0.00 79
20260510090100 15 309 0.0 0.0 0.00 0.00 0.00 79
20260510085555 15 217 0.0 0.0 0.00 0.00 0.00 78
20260510085052 15 19 0.0 3.2 0.00 0.00 0.00 77
20260510084548 15 326 3.2 3.2 0.00 0.00 0.00 78
20260510084045 16 0 0.0 1.6 0.00 0.00 0.00 77
20260510083542 16 144 0.0 3.2 0.00 0.00 0.00 76
20260510083038 16 147 0.0 0.0 0.00 0.00 0.00 75
20260510082535 16 150 0.0 3.2 0.00 0.00 0.00 74
20260510082030 16 104 1.6 3.2 0.00 0.00 0.00 74
20260510081525 16 224 0.0 1.6 0.00 0.00 0.00 74
20260510081021 16 174 0.0 1.6 0.00 0.00 0.00 72
20260510080520 16 290 0.0 0.0 0.00 0.00 0.00 71
20260510080018 16 105 3.2 3.2 0.00 0.00 0.00 69
20260510075515 16 35 0.0 4.8 0.00 0.00 0.00 69
20260510075012 16 131 0.0 3.2 0.00 0.00 0.00 70
20260510074510 16 269 0.0 4.8 0.00 0.00 0.00 70
20260510074005 15 235 3.2 4.8 0.00 0.00 0.00 75
20260510073501 15 124 0.0 1.6 0.00 0.00 0.00 76
20260510072958 16 142 0.0 1.6 0.00 0.00 0.00 75
20260510072455 16 226 1.6 3.2 0.00 0.00 0.00 74
20260510071950 16 0 0.0 3.2 0.00 0.00 0.00 70
20260510071447 16 68 1.6 3.2 0.00 0.00 0.00 73
20260510070945 15 119 4.8 4.8 0.00 0.00 0.00 73
20260510070442 16 212 0.0 1.6 0.00 0.00 0.00 74
20260510065938 16 222 0.0 1.6 0.00 0.00 0.00 71
20260510065435 16 226 0.0 1.6 0.00 0.00 0.00 72
20260510064931 16 212 0.0 1.6 0.00 0.00 0.00 72
20260510064428 16 234 1.6 1.6 0.00 0.00 0.00 70
20260510063925 15 186 0.0 1.6 0.00 0.00 0.00 71
20260510063421 15 229 0.0 1.6 0.00 0.00 0.00 73
20260510062919 15 227 1.6 1.6 0.00 0.00 0.00 72
20260510062414 15 230 0.0 0.0 0.00 0.00 0.00 74
20260510061910 15 215 0.0 0.0 0.00 0.00 0.00 74
20260510061407 15 212 0.0 1.6 0.00 0.00 0.00 74
20260510060902 15 186 0.0 0.0 0.00 0.00 0.00 75
20260510060359 16 235 0.0 1.6 0.00 0.00 0.00 70
20260510055856 16 202 0.0 1.6 0.00 0.00 0.00 66
20260510055355 16 230 0.0 1.6 0.00 0.00 0.00 68
20260510054854 16 269 0.0 0.0 0.00 0.00 0.00 68
20260510054350 16 239 0.0 1.6 0.00 0.00 0.00 70
20260510053845 17 231 3.2 3.2 0.00 0.00 0.00 68
20260510053340 17 246 0.0 1.6 0.00 0.00 0.00 64
20260510052837 17 193 0.0 1.6 0.00 0.00 0.00 65
20260510052333 17 224 0.0 1.6 0.00 0.00 0.00 67
20260510051829 17 180 3.2 3.2 0.00 0.00 0.00 63
20260510051326 18 279 1.6 1.6 0.00 0.00 0.00 63
20260510050823 18 118 1.6 3.2 0.00 0.00 0.00 60
20260510050319 18 315 0.0 1.6 0.00 0.00 0.00 59
20260510045817 18 162 3.2 4.8 0.00 0.00 0.00 56
20260510045314 19 195 3.2 3.2 0.00 0.00 0.00 56
20260510044811 19 265 0.0 8.0 0.00 0.00 0.00 56
20260510044308 19 189 9.7 9.7 0.00 0.00 0.00 55
20260510043804 19 259 1.6 14.5 0.00 0.00 0.00 55
20260510043300 19 268 3.2 3.2 0.00 0.00 0.00 55
20260510042758 20 228 1.6 9.7 0.00 0.00 0.00 53
20260510042253 20 201 6.4 8.0 0.00 0.00 0.00 53
20260510041750 20 201 6.4 11.3 0.00 0.00 0.00 52
20260510041248 20 198 8.0 9.7 0.00 0.00 0.00 52
20260510040745 20 220 6.4 9.7 0.00 0.00 0.00 51
20260510040241 20 201 6.4 8.0 0.00 0.00 0.00 52
20260510035737 20 208 6.4 8.0 0.00 0.03 0.03 52
20260510035233 20 202 3.2 8.0 0.00 0.03 0.03 52
20260510034728 20 231 4.8 9.7 0.00 0.03 0.03 51
20260510034227 19 169 6.4 8.0 0.00 0.03 0.03 53
20260510033722 18 201 1.6 4.8 0.00 0.03 0.03 56
20260510033221 18 103 0.0 3.2 0.00 0.03 0.03 57
20260510032716 18 284 3.2 3.2 0.00 0.03 0.03 56
20260510032212 17 252 3.2 3.2 0.00 0.03 0.03 59
20260510031707 17 235 0.0 3.2 0.00 0.03 0.03 60
20260510031204 17 252 1.6 3.2 0.00 0.03 0.03 62
20260510030703 17 285 0.0 3.2 0.00 0.03 0.03 58
20260510030202 17 244 0.0 1.6 0.00 0.03 0.03 58
20260510025659 17 269 0.0 3.2 0.00 0.03 0.03 61
20260510025156 18 269 1.6 3.2 0.00 0.03 0.03 58
20260510024653 18 269 0.0 1.6 0.00 0.03 0.03 59
20260510024149 18 269 0.0 1.6 0.00 0.03 0.03 58
20260510023645 18 251 1.6 1.6 0.00 0.03 0.03 59
20260510023143 18 278 1.6 3.2 0.00 0.03 0.03 59
20260510022642 18 281 0.0 1.6 0.00 0.03 0.03 56
20260510022138 18 283 0.0 1.6 0.00 0.03 0.03 58
20260510021634 18 309 0.0 1.6 0.00 0.03 0.03 57
20260510021131 18 235 0.0 1.6 0.00 0.03 0.03 55
20260510020625 18 246 0.0 1.6 0.00 0.03 0.03 60
20260510020121 18 233 0.0 1.6 0.00 0.03 0.03 61
20260510015618 18 266 0.0 3.2 0.00 0.03 0.03 64
20260510015114 18 256 0.0 1.6 0.00 0.03 0.03 64
20260510014609 18 217 0.0 1.6 0.00 0.03 0.03 62
20260510014107 19 235 0.0 1.6 0.00 0.03 0.03 62
20260510013601 19 235 0.0 1.6 0.00 0.03 0.03 62
20260510013057 19 269 0.0 1.6 0.00 0.03 0.03 61
20260510012551 19 325 0.0 0.0 0.00 0.03 0.03 61
20260510012048 19 325 0.0 0.0 0.00 0.03 0.03 63
20260510011547 19 235 0.0 1.6 0.00 0.03 0.03 68
20260510011043 19 191 0.0 1.6 0.00 0.03 0.03 62
20260510010540 19 197 0.0 0.0 0.00 0.03 0.03 61
20260510010037 20 227 0.0 0.0 0.00 0.03 0.03 60
20260510005533 20 50 0.0 0.0 0.00 0.03 0.03 59
20260510005031 20 50 0.0 0.0 0.00 0.03 0.03 59
20260510004528 20 135 0.0 0.0 0.00 0.03 0.03 58
20260510004026 20 37 0.0 0.0 0.00 0.03 0.03 58
20260510003523 21 34 0.0 0.0 0.00 0.03 0.03 56
20260510003018 21 333 0.0 0.0 0.00 0.03 0.03 55
20260510002514 22 7 0.0 0.0 0.00 0.03 0.03 53
20260510002011 22 5 0.0 1.6 0.00 0.03 0.03 52
20260510001509 23 129 0.0 0.0 0.00 0.03 0.03 52
20260510001007 23 246 0.0 1.6 0.00 0.03 0.03 50
20260510000507 24 239 0.0 3.2 0.00 0.03 0.03 46
20260510000004 25 255 0.0 1.6 0.00 0.03 0.03 43
20260509235501 25 199 3.2 6.4 0.00 0.03 0.03 42
20260509234956 25 226 3.2 6.4 0.00 0.03 0.03 39
20260509234454 26 238 0.0 4.8 0.00 0.03 0.03 39
20260509233952 26 208 6.4 8.0 0.00 0.03 0.03 34
20260509233449 26 206 4.8 8.0 0.00 0.03 0.03 33
20260509232944 27 200 6.4 11.3 0.00 0.03 0.03 31
20260509232443 28 307 0.0 6.4 0.00 0.03 0.03 35
20260509231938 27 206 3.2 6.4 0.00 0.03 0.03 32
20260509231435 27 185 0.0 3.2 0.00 0.03 0.03 32
20260509230933 28 185 3.2 9.7 0.00 0.03 0.03 32
20260509230430 28 281 3.2 6.4 0.00 0.03 0.03 34
20260509225926 28 249 1.6 3.2 0.00 0.03 0.03 34
20260509225422 27 326 4.8 6.4 0.00 0.03 0.03 30
20260509224919 27 216 8.0 12.9 0.00 0.03 0.03 31
20260509224414 28 216 3.2 6.4 0.00 0.03 0.03 33
20260509223912 28 239 4.8 6.4 0.00 0.03 0.03 34
20260509223408 27 320 1.6 12.9 0.00 0.03 0.03 36
20260509222905 28 257 3.2 9.7 0.00 0.03 0.03 34
20260509222401 27 190 6.4 8.0 0.00 0.03 0.03 32
20260509221856 28 196 6.4 11.3 0.00 0.03 0.03 32
20260509221353 28 183 3.2 3.2 0.00 0.03 0.03 29
20260509220849 28 173 4.8 4.8 0.00 0.03 0.03 33
20260509220345 28 174 3.2 6.4 0.00 0.03 0.03 32
20260509215840 27 318 3.2 9.7 0.00 0.03 0.03 30
20260509215337 28 351 3.2 11.3 0.00 0.03 0.03 32
20260509214834 28 301 1.6 6.4 0.00 0.03 0.03 31
20260509214331 28 252 3.2 4.8 0.00 0.03 0.03 31
20260509213829 28 284 4.8 8.0 0.00 0.03 0.03 29
20260509213323 28 260 3.2 9.7 0.00 0.03 0.03 36
20260509212821 28 247 4.8 9.7 0.00 0.03 0.03 31
20260509212319 28 302 6.4 9.7 0.00 0.03 0.03 29
20260509211814 27 61 1.6 6.4 0.00 0.03 0.03 30
20260509211310 27 327 11.3 11.3 0.00 0.03 0.03 29
20260509210807 28 195 8.0 8.0 0.00 0.03 0.03 33
20260509210305 27 257 3.2 6.4 0.00 0.03 0.03 35
20260509205804 27 195 8.0 12.9 0.00 0.03 0.03 31
20260509205300 28 245 1.6 16.1 0.00 0.03 0.03 31
20260509204756 28 196 6.4 8.0 0.00 0.03 0.03 35
20260509204252 28 258 4.8 9.7 0.00 0.03 0.03 30
20260509203748 28 231 8.0 9.7 0.00 0.03 0.03 30